Meteo Giornale » Osservazioni meteo Slovenia » Ljubljana-Brnik

ore: 16:00 - Osservazioni Meteo Ljubljana-Brnik
Lat. 46° 13' N Lon. 14° 29' E Alt. 385 metri s.l.m.

sereno Europe/Ljubljana

23 °C

Sereno

Temp. 24 Ore

7 °C

23 °C

Nord

3.7 Km/h

Dew point 15 °C

Umidità 60 %

Visibilità  10 Km

Il sole sorge alle ore 07:27

Il sole tramonta alle ore 18:05

Data e Ora Cielo e Fenomeni T °C DP °C Um. % Pres. hPa Vis. km Vento km/h
Oggi h: 16:00 sereno Sereno 23 15 60 1021 10 N 3.7
Oggi h: 15:30 sereno Sereno 23 14 56 1022 10 N 3.7
Oggi h: 15:00 sereno Sereno 23 14 56 1022 10 N 5.5
Oggi h: 14:30 sereno Sereno 22 13 56 1022 10 N 3.7
Oggi h: 14:00 sereno Sereno 22 13 56 1023 10 N 5.5
Oggi h: 13:30 sereno Sereno 22 13 56 1023 10 N 1.8
Oggi h: 13:00 sereno Sereno 20 13 64 1023 10 N 3.7
Oggi h: 12:30 sereno Sereno 19 13 68 1024 10 N 1.8
Oggi h: 12:00 sereno Sereno 19 11 59 1024 10 N 1.8
Oggi h: 11:30 sereno Sereno 17 11 67 1024 10 N 1.8
Oggi h: 11:00 sereno Sereno 16 11 72 1024 10 N 0
Oggi h: 10:30 sereno Sereno 15 12 82 1024 10 E/NE 7.4
Oggi h: 10:00 sereno Sereno 14 12 87 1024 10 N 3.7
Oggi h: 09:30 sereno Sereno 12 12 100 1024 10 N 3.7
Oggi h: 09:00 sereno Sereno 10 10 100 1024 10 N 3.7
Oggi h: 08:30 sereno Sereno 8 8 100 1023 10 N 5.5
Oggi h: 08:00 poco_nuvoloso Poco Nuvoloso 7 7 100 1023 10 O/NO 7.4
Oggi h: 07:30 poco_nuvoloso Nebbia nelle Vicinanze 7 7 100 1023 10 O 7.4
Oggi h: 07:00 poco_nuvoloso Nebbia nelle Vicinanze 8 7 93 1023 10 N 3.7
Oggi h: 06:30 nebbia NebbiaParziale 7 7 100 1023 0.9 N 1.8
Oggi h: 06:00 nebbia NebbiaParziale 8 7 93 1023 0.8 N 3.7
Oggi h: 05:30 foschia Foschia 8 7 93 1023 2 N 1.8
Oggi h: 05:00 nebbia NebbiaParziale 8 8 100 1023 0.4 N 1.8
Oggi h: 04:30 foschia Foschia Nebbia a Strati 8 8 100 1023 4 N 1.8
Oggi h: 04:00 foschia Foschia 9 8 93 1023 4 N 3.7
Oggi h: 03:30 sereno Sereno 10 9 93 1023 10 O/NO 7.4
Oggi h: 03:00 sereno Sereno 10 9 93 1023 10 O/NO 7.4
Oggi h: 02:30 sereno Sereno 10 9 93 1023 10 O/NO 11.1
Oggi h: 02:00 sereno Sereno 10 9 93 1023 10 O/NO 11.1
Oggi h: 01:30 sereno Sereno 10 10 100 1023 10 O/NO 13
Oggi h: 01:00 sereno Sereno 10 10 100 1023 10 O/NO 13
Oggi h: 00:30 sereno Sereno 10 10 100 1023 10 O/NO 11.1
Oggi h: 00:00 nebbia Nebbia a Strati 10 10 100 1023 10 O/NO 11.1
Ieri h: 23:30 nebbia Nebbia a Strati 10 9 93 1023 10 N 5.5
Ieri h: 23:00 nebbia Nebbia a Strati 10 10 100 1023 10 O 7.4
Ieri h: 22:30 nebbia Nebbia a Strati 11 11 100 1023 10 N 5.5
Ieri h: 22:00 nebbia Nebbia a Strati 11 11 100 1023 10 O/NO 7.4
Ieri h: 21:30 nebbia Nebbia a Strati 13 12 93 1023 10 N 0
Ieri h: 21:00 nebbia Nebbia a Strati 12 12 100 1023 10 N 3.7
Ieri h: 20:30 sereno Sereno 13 12 93 1023 10 N 0
Ieri h: 20:00 sereno Sereno 14 13 93 1023 10 N 1.8
Ieri h: 19:30 sereno Sereno 14 13 93 1023 10 N 1.8
Ieri h: 19:00 poco_nuvoloso Poco Nuvoloso 16 13 82 1023 10 N 1.8
Ieri h: 18:30 poco_nuvoloso Poco Nuvoloso 18 14 77 1022 10 SO 9.3
Ieri h: 18:00 poco_nuvoloso Poco Nuvoloso 18 14 77 1022 10 SO 11.1
Ieri h: 17:30 poco_nuvoloso Poco Nuvoloso 19 14 72 1022 10 S/SO 9.3
Ieri h: 17:00 poco_nuvoloso Poco Nuvoloso 20 14 68 1022 10 SO 14.8